Tracking 28790 objects as of 19-Apr-2024
HD Live streaming from Space Station
objects crossing your sky now

CZ-3B R/B

Track CZ-3B R/B now!
10-day predictions


NORAD ID: 44077
Int'l Code: 2019-017B
Perigee: 197.5 km
Apogee: 21,967.2 km
Inclination: 26.8 °
Period: 382.5 minutes
Semi major axis: 17453 km
RCS: Unknown
Launch date: March 31, 2019
Source: People's Republic of China (PRC)
Launch site: Xichang Space Center, China (XSC)

Note: This is a ROCKET BODY
Your satellite tracking list
Your tracking list is empty




NASA's NSSDC Master Catalog

Two Line Element Set (TLE):
1 44077U 19017B   24109.22497316  .00058626  54853-6  16539-2 0  9994
2 44077  26.7664 201.0034 6236566 309.1984  10.2928  3.76517154 53787
Source of the keplerian elements: AFSPC